Hourly Data Report for October 13, 2013

All times are specified in Local Standard Time (LST). Add 1 hour to adjust for Daylight Saving Time where and when it is observed.

CAPE DORSET A
NUNAVUT

64°13'49.000" N
76°31'30.000" W
48.20 m
2400637
71366
YTE

Download Data

Hourly Data (October 2013)
Hourly Data Report for October 13, 2013
Temp Definition
°C
Dew Point Temp Definition
°C
Rel Hum Definition
%
Wind Dir Definition
10's deg

Wind Spd Definition
km/h
Visibility Definition
km
Stn Press Definition
kPa
Hmdx Definition


Wind Chill Definition


Weather Definition


TIME
00:00 Legend Double Dagger 4.4 1.3 80 18 17 16.1 100.28     LegendNANA
01:00 Legend Double Dagger 4.3 1.2 80 17 26 16.1 100.21     LegendNANA
02:00 Legend Double Dagger 3.8 0.5 79 16 32 16.1 100.16     LegendNANA
03:00 Legend Double Dagger 4.2 0.4 76 16 35 16.1 100.03     LegendNANA
04:00 Legend Double Dagger 4.2 0.5 77 17 33 16.1 100.05     LegendNANA
05:00 Legend Double Dagger 3.3 0.7 83 16 32 16.1 99.95     LegendNANA
06:00 Legend Double Dagger 3.4 1.0 84 17 37 16.1 99.97     LegendNANA
07:00 Legend Double Dagger 3.5 1.4 86 17 33 12.9 99.88     LegendNANA
08:00 Legend Double Dagger 3.2 1.1 86 16 30 16.1 99.84     LegendNANA
09:00 Legend Double Dagger 3.1 1.5 89 16 33 16.1 99.79     LegendNANA
10:00 Legend Double Dagger 3.5 1.7 88 16 30 16.1 99.80     LegendNANA
11:00 Legend Double Dagger 2.2 1.3 94 10 22 11.3 99.78     LegendNANA
12:00 Legend Double Dagger 2.2 1.3 94 9 22 11.3 99.75     LegendNANA
13:00 Legend Double Dagger 2.3 1.6 95 8 21 6.4 99.75     LegendNANA
14:00 Legend Double Dagger 3.3 2.9 97 13 15 11.3 99.72     LegendNANA
15:00 Legend Double Dagger 3.3 2.9 97 9 9 11.3 99.70     LegendNANA
16:00 Legend Double Dagger 2.8 2.5 98 9 17 4.8 99.70     LegendNANA
17:00 Legend Double Dagger 2.4 1.7 95 9 21 14.5 99.65     LegendNANA
18:00 Legend Double Dagger 2.1 1.4 95 9 21 12.9 99.60     LegendNANA
19:00 Legend Double Dagger 2.5 1.3 92 8 15 16.1 99.65     LegendNANA
20:00 Legend Double Dagger 1.4 0.7 95 9 22 6.4 99.60     LegendNANA
21:00 Legend Double Dagger 1.2 0.8 97 9 18 3.2 99.55     LegendNANA
22:00 Legend Double Dagger 1.0 0.6 97 8 17 4.0 99.48     LegendNANA
23:00 Legend Double Dagger 0.7 0.4 98 9 17 2.4 99.45     LegendNANA

Notes on Data Quality.

Legend

  • E = Estimated
  • M = Missing
  • NA = Not Available
  • ‡ = Partner data that is not subject to review by the National Climate Archives
Date modified: